Regional Weather Roundup
Issued by NWS Memphis, TN

Home | Current Version | Previous Version | Text Only | Print | Product List | Glossary On
Versions: 1 2 3 4 5 6 7 8 9 10 11 12 13 14 15 16 17 18 19 20 21 22 23 24 25 26 27 28 29 30 31 32 33 34 35 36 37 38 39 40 41 42 43 44 45 46 47 48 49 50
000
ASUS44 KMEG 212110
RWRMEG
MEMPHIS CWA HOURLY WEATHER ROUNDUP
NATIONAL WEATHER SERVICE MEMPHIS TN
300 PM CST TUE NOV 21 2017

...WEST TENNESSEE...

CITY           SKY/WX    TMP DP  RH WIND       PRES   REMARKS
MEMPHIS INTL   CLOUDY    60  37  42 VRB3      30.01F
NWS MEMPHIS      N/A     61 N/A N/A MISG        N/A
JACKSON        MOSUNNY   59  36  42 SW6       30.00F
COVINGTON      SUNNY     59  36  41 S5        30.00F
SOMERVILLE     MOSUNNY   61  36  39 SW7       30.00S
BOLIVAR        SUNNY     61  34  36 SW5       30.00F
LEXINGTON      SUNNY     59  32  36 SW7       30.01S
SELMER         SUNNY     59  32  36 W6        30.00F
SAVANNAH       SUNNY     59  36  41 S6        30.01F
DYERSBURG      MOSUNNY   58  37  45 VRB5      30.00F
UNION CITY     SUNNY     57  37  47 S7        29.99F
PARIS          SUNNY     55  36  47 SW10      29.99S
HUNTINGDON     SUNNY     59  34  38 SW9       29.99F


...EASTERN ARKANSAS...

CITY           SKY/WX    TMP DP  RH WIND       PRES   REMARKS
JONESBORO      MOSUNNY   59  44  57 SW8       29.98F
WEST MEMPHIS   PTSUNNY   59  39  47 S10       29.99F
BATESVILLE     CLOUDY    63  43  48 S3        29.98S
NEWPORT        PTSUNNY   59  44  57 SW12      29.98S
WALNUT RIDGE     N/A     59  42  53 S6        29.99S
BLYTHEVILLE    CLOUDY    58  41  53 SW9       29.99F
NW BLYTHEVILLE CLOUDY    57  41  54 SW12G18   29.99F
SEARCY         CLOUDY    60  45  57 SW6       29.99F
STUTTGART      PTSUNNY   63  45  51 S6        30.00F
PINE BLUFF     MOSUNNY   64  48  56 W5        30.00S
MONTICELLO     MOSUNNY   64  45  49 CALM      30.00S


...NORTH MISSISSIPPI...

CITY           SKY/WX    TMP DP  RH WIND       PRES   REMARKS
TUPELO         SUNNY     59  34  39 S6        30.01F
OXFORD         SUNNY     59  32  36 SW6       30.03S
BATESVILLE     MOSUNNY   61  30  30 SW6       30.03S
OLIVE BRANCH   PTSUNNY  N/A N/A N/A SW6       29.98F
TUNICA           N/A    N/A N/A N/A S8        30.02F
CLARKSDALE       N/A     63  37  39 CALM      30.02S
CORINTH        SUNNY     59  34  38 SE8       30.01F
GREENWOOD      SUNNY     63  36  36 CALM      30.01S
COLUMBUS       CLOUDY    61  40  46 CALM      30.01S
STARKVILLE     PTSUNNY   59  36  41 CALM      30.02S
GOLDEN TRIANGL MOSUNNY   62  32  32 NW3       30.02S


...SOUTHEAST MISSOURI...

CITY           SKY/WX    TMP DP  RH WIND       PRES   REMARKS
KENNETT        CLOUDY    59  41  51 SW8       29.98S HAZE
MALDEN         CLOUDY    57  39  51 S5        30.01R
WEST PLAINS    CLOUDY    59  34  39 NW7       30.00R
POPLAR BLUFF   MOSUNNY   57  40  52 S8        29.99R
CAPE GIRARDEAU CLOUDY    55  40  56 S9        29.99R


...NORTHWEST ALABAMA...

CITY           SKY/WX    TMP DP  RH WIND       PRES   REMARKS
MUSCLE SHOALS  MOSUNNY   61  30  31 W3        30.02S


...MIDDLE TENNESSEE...

CITY           SKY/WX    TMP DP  RH WIND       PRES   REMARKS
NASHVILLE      PTSUNNY   60  28  29 SW7       30.00F
CLARKSVILLE    MOSUNNY   56  30  37 SW12      30.00R
COLUMBIA       SUNNY     59  27  29 SW8       29.99F


...WESTERN KENTUCKY...

CITY           SKY/WX    TMP DP  RH WIND       PRES   REMARKS
PADUCAH        MOSUNNY   57  36  45 SW12      29.99R
FORT CAMPBELL  MOSUNNY   56  32  39 SW10      29.99R


...CENTRAL ARKANSAS...

CITY           SKY/WX    TMP DP  RH WIND       PRES   REMARKS
LITTLE ROCK    PTSUNNY   61  46  57 S6        29.99F


SKY/WX REPORTED AS FAIR MEANS FEW OR NO CLOUDS BELOW
12 THOUSAND FEET.




USA.gov is the U.S. government's official web portal to all federal, state and local government web resources and services.